User: anonymous   Login
Location: Theydon Bois
(51.6750°N, 0.1050°E)
Time: 21:56:49
(UTC+01:00)
Language:

Cosmos 2112 Rocket - Orbit

View from above orbital plane
View from above orbital plane
View from above satellite
View from above satellite

Ground track
Ground track

The orbit data is extracted from the following two-line orbital elements,

1 21015U 90111B   17295.96782958 +.00000029 +00000-0 +19001-4 0  9995
2 21015 074.0494 262.5019 0020872 139.0190 276.3246 14.35911970504230
Epoch (UTC): 22 October 2017 23:13:40
Eccentricity: 0.0020872
inclination: 74.0494°
perigee height: 757 km
apogee height: 787 km
right ascension of ascending node: 262.5019°
argument of perigee: 139.0190°
revolutions per day: 14.35911970
mean anomaly at epoch: 276.3246°
orbit number at epoch: 50423

The dashed part of the orbit path shows where the satellite is in the earth's shadow,  

DLR